Location: American Canyon
(38.1966°N, 122.1514°W)
Time: 17:27:21
(UTC+00:00)

Cosmos 1606 Rocket - Pass Details

Date: 29 October 2020
Orbit: 604 x 631 km, 82.5° (Epoch: 23 November)

Event Time Altitude Azimuth Distance (km) Brightness Sun altitude
Rises 13:13:35 0° 343° (NNW) 2,929 6.8 -16.0°
Reaches altitude 10° 13:15:57 10° 336° (NNW) 2,018 5.9 -15.5°
Maximum altitude 13:20:04 37° 269° (W) 977 4.1 -14.7°
Drops below altitude 10° 13:24:10 10° 201° (SSW) 2,002 6.0 -13.9°
Sets 13:26:30 0° 194° (SSW) 2,902 6.9 -13.4°
